Time,TemperatureF,DewpointF,PressureIn,WindDirection,WindDirectionDegrees,WindSpeedMPH,WindSpeedGustMPH,Humidity,HourlyPrecipIn,Conditions,Clouds,dailyrainin,SoftwareType,DateUTC
2013-06-22 00:01:00,66.7,36.8,27.70,NE,48,0.0,0.0,33,0.00,,---,0.00,VWS V14.01,2013-06-22 04:01:00,
2013-06-22 00:06:00,66.7,36.8,27.70,NE,48,0.0,0.0,33,0.00,,---,0.00,VWS V14.01,2013-06-22 04:06:00,
2013-06-22 00:11:00,66.6,36.6,27.70,NE,48,0.0,0.0,33,0.00,,---,0.00,VWS V14.01,2013-06-22 04:11:00,
2013-06-22 00:16:00,66.6,36.6,27.70,NE,48,0.0,0.0,33,0.00,,---,0.00,VWS V14.01,2013-06-22 04:16:00,
2013-06-22 00:21:00,66.6,37.3,27.70,NE,48,0.0,0.0,34,0.00,,---,0.00,VWS V14.01,2013-06-22 04:21:00,
2013-06-22 00:26:00,66.6,37.3,27.70,NE,48,0.0,0.0,34,0.00,,---,0.00,VWS V14.01,2013-06-22 04:26:00,
2013-06-22 00:31:00,66.4,37.2,27.70,NE,48,0.0,0.0,34,0.00,,---,0.00,VWS V14.01,2013-06-22 04:31:00,
2013-06-22 00:36:00,66.4,37.2,27.70,NE,48,0.0,0.0,34,0.00,,---,0.00,VWS V14.01,2013-06-22 04:36:00,
2013-06-22 00:41:00,66.4,37.2,27.70,NE,48,0.0,0.0,34,0.00,,---,0.00,VWS V14.01,2013-06-22 04:41:00,
2013-06-22 00:46:00,66.2,37.0,27.70,NE,48,0.0,0.0,34,0.00,,---,0.00,VWS V14.01,2013-06-22 04:46:00,
2013-06-22 00:51:00,66.2,37.0,27.70,NE,48,0.0,0.0,34,0.00,,---,0.00,VWS V14.01,2013-06-22 04:51:00,
2013-06-22 00:56:00,66.0,37.6,27.70,NE,48,0.0,0.0,35,0.00,,---,0.00,VWS V14.01,2013-06-22 04:56:00,
2013-06-22 01:01:00,65.8,37.5,27.70,NE,48,0.0,0.0,35,0.00,,---,0.00,VWS V14.01,2013-06-22 05:01:00,
2013-06-22 01:06:00,65.7,37.3,27.70,NE,48,0.0,0.0,35,0.00,,---,0.00,VWS V14.01,2013-06-22 05:06:00,
2013-06-22 01:11:00,65.5,37.8,27.70,NE,48,0.0,0.0,36,0.00,,---,0.00,VWS V14.01,2013-06-22 05:11:00,
2013-06-22 01:16:00,65.5,37.8,27.70,NE,48,0.0,0.0,36,0.00,,---,0.00,VWS V14.01,2013-06-22 05:16:00,
2013-06-22 01:21:00,65.3,37.7,27.70,NE,48,0.0,0.0,36,0.00,,---,0.00,VWS V14.01,2013-06-22 05:21:00,
2013-06-22 01:26:00,65.3,37.7,27.70,NE,48,0.0,0.0,36,0.00,,---,0.00,VWS V14.01,2013-06-22 05:26:00,
2013-06-22 01:31:00,65.3,37.7,27.70,NE,48,0.0,0.0,36,0.00,,---,0.00,VWS V14.01,2013-06-22 05:31:00,
2013-06-22 01:36:00,65.3,37.7,27.70,NE,48,0.0,0.0,36,0.00,,---,0.00,VWS V14.01,2013-06-22 05:36:00,
2013-06-22 01:41:00,64.6,38.4,27.70,NE,48,0.0,0.0,38,0.00,,---,0.00,VWS V14.01,2013-06-22 05:41:00,
2013-06-22 01:46:00,64.4,38.3,27.70,NE,48,0.0,0.0,38,0.00,,---,0.00,VWS V14.01,2013-06-22 05:46:00,
2013-06-22 01:51:00,64.2,38.8,27.70,NE,48,0.0,0.0,39,0.00,,---,0.00,VWS V14.01,2013-06-22 05:51:00,
2013-06-22 01:56:00,64.0,39.2,27.70,NE,48,0.0,0.0,40,0.00,,---,0.00,VWS V14.01,2013-06-22 05:56:00,
2013-06-22 02:01:00,63.9,39.7,27.70,NE,48,0.0,0.0,41,0.00,,---,0.00,VWS V14.01,2013-06-22 06:01:00,
2013-06-22 02:06:00,63.7,40.2,27.70,NE,48,0.0,0.0,42,0.00,,---,0.00,VWS V14.01,2013-06-22 06:06:00,
2013-06-22 02:11:00,63.7,40.2,27.67,NE,48,0.0,0.0,42,0.00,,---,0.00,VWS V14.01,2013-06-22 06:11:00,
2013-06-22 02:15:00,63.7,40.8,27.67,NE,48,0.0,0.0,43,0.00,,---,0.00,VWS V14.01,2013-06-22 06:15:00,
2013-06-22 02:20:00,63.7,40.8,27.67,NE,48,0.0,0.0,43,0.00,,---,0.00,VWS V14.01,2013-06-22 06:20:00,
2013-06-22 02:25:00,63.7,40.8,27.67,NE,48,0.0,0.0,43,0.00,,---,0.00,VWS V14.01,2013-06-22 06:25:00,
2013-06-22 02:30:00,63.5,41.2,27.67,NE,48,0.0,0.0,44,0.00,,---,0.00,VWS V14.01,2013-06-22 06:30:00,
2013-06-22 02:35:00,63.5,41.2,27.67,NE,48,0.0,0.0,44,0.00,,---,0.00,VWS V14.01,2013-06-22 06:35:00,
2013-06-22 02:40:00,63.3,41.1,27.67,NE,48,0.0,0.0,44,0.00,,---,0.00,VWS V14.01,2013-06-22 06:40:00,
2013-06-22 02:45:00,63.1,40.9,27.67,NE,48,0.0,0.0,44,0.00,,---,0.00,VWS V14.01,2013-06-22 06:45:00,
2013-06-22 02:50:00,63.1,41.5,27.67,NE,48,0.0,0.0,45,0.00,,---,0.00,VWS V14.01,2013-06-22 06:50:00,
2013-06-22 02:55:00,63.1,41.5,27.67,NE,48,0.0,0.0,45,0.00,,---,0.00,VWS V14.01,2013-06-22 06:55:00,
2013-06-22 03:00:00,63.0,41.3,27.67,NE,48,0.0,0.0,45,0.00,,---,0.00,VWS V14.01,2013-06-22 07:00:00,
2013-06-22 03:05:00,63.0,41.3,27.67,NE,48,0.0,0.0,45,0.00,,---,0.00,VWS V14.01,2013-06-22 07:05:00,
2013-06-22 03:10:00,63.0,41.3,27.67,NE,48,0.0,0.0,45,0.00,,---,0.00,VWS V14.01,2013-06-22 07:10:00,
2013-06-22 03:15:00,63.0,41.3,27.67,NE,48,0.0,0.0,45,0.00,,---,0.00,VWS V14.01,2013-06-22 07:15:00,
2013-06-22 03:20:00,63.0,41.3,27.67,NE,48,0.0,0.0,45,0.00,,---,0.00,VWS V14.01,2013-06-22 07:20:00,
2013-06-22 03:25:00,63.0,41.3,27.67,NE,48,0.0,0.0,45,0.00,,---,0.00,VWS V14.01,2013-06-22 07:25:00,
2013-06-22 03:30:00,63.0,41.3,27.67,NE,49,0.0,0.0,45,0.00,,---,0.00,VWS V14.01,2013-06-22 07:30:00,
2013-06-22 03:35:00,63.0,41.9,27.67,NE,48,0.0,0.0,46,0.00,,---,0.00,VWS V14.01,2013-06-22 07:35:00,
2013-06-22 03:40:00,63.0,41.9,27.67,NE,48,0.0,0.0,46,0.00,,---,0.00,VWS V14.01,2013-06-22 07:40:00,
2013-06-22 03:45:00,62.8,42.3,27.67,NE,48,0.0,0.0,47,0.00,,---,0.00,VWS V14.01,2013-06-22 07:45:00,
2013-06-22 03:50:00,62.8,42.3,27.67,NE,48,0.0,0.0,47,0.00,,---,0.00,VWS V14.01,2013-06-22 07:50:00,
2013-06-22 03:55:00,62.6,42.1,27.67,NE,48,0.0,0.0,47,0.00,,---,0.00,VWS V14.01,2013-06-22 07:55:00,
2013-06-22 04:00:00,62.6,42.1,27.67,NE,48,0.0,0.0,47,0.00,,---,0.00,VWS V14.01,2013-06-22 08:00:00,
2013-06-22 04:05:00,62.6,42.1,27.67,NE,48,0.0,0.0,47,0.00,,---,0.00,VWS V14.01,2013-06-22 08:05:00,
2013-06-22 04:10:00,62.6,42.7,27.67,NE,48,0.0,0.0,48,0.00,,---,0.00,VWS V14.01,2013-06-22 08:10:00,
2013-06-22 04:15:00,62.6,42.7,27.67,NE,48,0.0,0.0,48,0.00,,---,0.00,VWS V14.01,2013-06-22 08:15:00,
2013-06-22 04:20:00,62.6,42.7,27.67,NE,48,0.0,0.0,48,0.00,,---,0.00,VWS V14.01,2013-06-22 08:20:00,
2013-06-22 04:25:00,62.6,43.2,27.67,NE,48,0.0,0.0,49,0.00,,---,0.00,VWS V14.01,2013-06-22 08:25:00,
2013-06-22 04:30:00,62.8,43.4,27.67,NE,48,0.0,0.0,49,0.00,,---,0.00,VWS V14.01,2013-06-22 08:30:00,
2013-06-22 04:35:00,62.8,43.4,27.67,NE,48,0.0,0.0,49,0.00,,---,0.00,VWS V14.01,2013-06-22 08:35:00,
2013-06-22 04:40:00,62.8,43.4,27.67,NE,48,0.0,0.0,49,0.00,,---,0.00,VWS V14.01,2013-06-22 08:40:00,
2013-06-22 04:45:00,62.8,43.4,27.67,NE,48,0.0,0.0,49,0.00,,---,0.00,VWS V14.01,2013-06-22 08:45:00,
2013-06-22 04:50:00,62.8,43.4,27.67,NE,48,0.0,0.0,49,0.00,,---,0.00,VWS V14.01,2013-06-22 08:50:00,
2013-06-22 04:55:00,62.8,43.4,27.67,NE,48,0.0,0.0,49,0.00,,---,0.00,VWS V14.01,2013-06-22 08:55:00,
2013-06-22 05:00:00,62.8,43.4,27.67,NE,48,0.0,0.0,49,0.00,,---,0.00,VWS V14.01,2013-06-22 09:00:00,
2013-06-22 05:05:00,62.8,43.4,27.67,NE,48,0.0,0.0,49,0.00,,---,0.00,VWS V14.01,2013-06-22 09:05:00,
2013-06-22 05:10:00,62.6,43.2,27.67,NE,48,0.0,0.0,49,0.00,,---,0.00,VWS V14.01,2013-06-22 09:10:00,
2013-06-22 05:15:00,62.6,43.2,27.67,NE,48,0.0,0.0,49,0.00,,---,0.00,VWS V14.01,2013-06-22 09:15:00,
2013-06-22 05:20:00,62.4,43.5,27.67,NE,48,0.0,0.0,50,0.00,,---,0.00,VWS V14.01,2013-06-22 09:20:00,
2013-06-22 05:25:00,62.2,43.4,27.70,NE,48,0.0,0.0,50,0.00,,---,0.00,VWS V14.01,2013-06-22 09:25:00,
2013-06-22 05:30:00,62.1,43.2,27.70,NE,48,0.0,0.0,50,0.00,,---,0.00,VWS V14.01,2013-06-22 09:30:00,
2013-06-22 05:35:00,62.1,43.2,27.70,NE,48,0.0,0.0,50,0.00,,---,0.00,VWS V14.01,2013-06-22 09:35:00,
2013-06-22 05:40:00,62.1,43.2,27.70,NE,48,0.0,0.0,50,0.00,,---,0.00,VWS V14.01,2013-06-22 09:40:00,
2013-06-22 05:45:00,62.1,43.7,27.70,NE,48,0.0,0.0,51,0.00,,---,0.00,VWS V14.01,2013-06-22 09:45:00,
2013-06-22 05:50:00,62.2,43.9,27.70,NE,48,0.0,0.0,51,0.00,,---,0.00,VWS V14.01,2013-06-22 09:50:00,
2013-06-22 05:55:00,62.2,43.9,27.70,NE,48,0.0,0.0,51,0.00,,---,0.00,VWS V14.01,2013-06-22 09:55:00,
2013-06-22 06:00:00,62.2,43.9,27.70,NE,48,0.0,0.0,51,0.00,,---,0.00,VWS V14.01,2013-06-22 10:00:00,
2013-06-22 06:05:00,62.1,43.7,27.70,NE,48,0.0,0.0,51,0.00,,---,0.00,VWS V14.01,2013-06-22 10:05:00,
2013-06-22 06:10:00,62.1,43.7,27.70,NE,48,0.0,0.0,51,0.00,,---,0.00,VWS V14.01,2013-06-22 10:10:00,
2013-06-22 06:15:00,61.9,43.6,27.70,NE,48,0.0,0.0,51,0.00,,---,0.00,VWS V14.01,2013-06-22 10:15:00,
2013-06-22 06:20:00,61.9,43.6,27.70,NE,48,0.0,0.0,51,0.00,,---,0.00,VWS V14.01,2013-06-22 10:20:00,
2013-06-22 06:25:00,61.7,43.4,27.67,NE,48,0.0,0.0,51,0.00,,---,0.00,VWS V14.01,2013-06-22 10:25:00,
2013-06-22 06:30:00,61.7,43.4,27.67,NE,48,0.0,0.0,51,0.00,,---,0.00,VWS V14.01,2013-06-22 10:30:00,
2013-06-22 06:35:00,61.7,43.4,27.67,NE,48,0.0,0.0,51,0.00,,---,0.00,VWS V14.01,2013-06-22 10:35:00,
2013-06-22 06:40:00,61.7,43.4,27.70,NE,48,0.0,0.0,51,0.00,,---,0.00,VWS V14.01,2013-06-22 10:40:00,
2013-06-22 06:45:00,61.7,43.9,27.70,NE,48,0.0,0.0,52,0.00,,---,0.00,VWS V14.01,2013-06-22 10:45:00,
2013-06-22 06:50:00,61.7,43.9,27.70,NE,48,0.0,0.0,52,0.00,,---,0.00,VWS V14.01,2013-06-22 10:50:00,
2013-06-22 06:55:00,61.7,43.9,27.70,NE,48,0.0,0.0,52,0.00,,---,0.00,VWS V14.01,2013-06-22 10:55:00,
2013-06-22 07:00:00,61.7,43.9,27.70,NE,48,0.0,0.0,52,0.00,,---,0.00,VWS V14.01,2013-06-22 11:00:00,
2013-06-22 07:05:00,61.7,43.9,27.70,NE,48,0.0,0.0,52,0.00,,---,0.00,VWS V14.01,2013-06-22 11:05:00,
2013-06-22 07:10:00,61.7,43.9,27.70,NE,48,0.0,0.0,52,0.00,,---,0.00,VWS V14.01,2013-06-22 11:10:00,
2013-06-22 07:15:00,61.5,43.8,27.70,NE,48,0.0,0.0,52,0.00,,---,0.00,VWS V14.01,2013-06-22 11:15:00,
2013-06-22 07:20:00,61.5,43.8,27.70,NE,48,0.0,0.0,52,0.00,,---,0.00,VWS V14.01,2013-06-22 11:20:00,
2013-06-22 07:25:00,61.5,43.8,27.70,NE,48,0.0,0.0,52,0.00,,---,0.00,VWS V14.01,2013-06-22 11:25:00,
2013-06-22 07:30:00,61.7,43.9,27.70,NE,48,0.0,0.0,52,0.00,,---,0.00,VWS V14.01,2013-06-22 11:30:00,
2013-06-22 07:35:00,61.7,43.9,27.70,NE,48,0.0,0.0,52,0.00,,---,0.00,VWS V14.01,2013-06-22 11:35:00,
2013-06-22 07:40:00,61.9,44.6,27.70,NE,48,0.0,0.0,53,0.00,,---,0.00,VWS V14.01,2013-06-22 11:40:00,
2013-06-22 07:45:00,62.1,44.8,27.70,NE,48,0.0,0.0,53,0.00,,---,0.00,VWS V14.01,2013-06-22 11:45:00,
2013-06-22 07:50:00,62.2,44.9,27.70,NE,48,0.0,0.0,53,0.00,,---,0.00,VWS V14.01,2013-06-22 11:50:00,
2013-06-22 07:55:00,62.6,45.2,27.70,NE,48,0.0,0.0,53,0.00,,---,0.00,VWS V14.01,2013-06-22 11:55:00,
2013-06-22 08:00:00,62.8,45.4,27.70,NE,48,0.0,0.0,53,0.00,,---,0.00,VWS V14.01,2013-06-22 12:00:00,
2013-06-22 08:05:00,63.1,46.2,27.70,NE,48,0.0,0.0,54,0.00,,---,0.00,VWS V14.01,2013-06-22 12:05:00,
2013-06-22 08:10:00,63.5,46.6,27.70,NE,48,0.0,0.0,54,0.00,,---,0.00,VWS V14.01,2013-06-22 12:10:00,
2013-06-22 08:15:00,63.9,46.9,27.70,NE,48,0.0,0.0,54,0.00,,---,0.00,VWS V14.01,2013-06-22 12:15:00,
2013-06-22 08:20:00,64.2,47.2,27.70,NE,48,0.0,0.0,54,0.00,,---,0.00,VWS V14.01,2013-06-22 12:20:00,
2013-06-22 08:25:00,64.8,47.2,27.70,NE,48,0.0,0.0,53,0.00,,---,0.00,VWS V14.01,2013-06-22 12:25:00,
2013-06-22 08:30:00,65.1,47.6,27.70,NE,48,0.0,0.0,53,0.00,,---,0.00,VWS V14.01,2013-06-22 12:30:00,
2013-06-22 08:35:00,65.5,47.4,27.70,NE,48,0.0,0.0,52,0.00,,---,0.00,VWS V14.01,2013-06-22 12:35:00,
2013-06-22 08:40:00,65.8,47.2,27.70,ENE,61,0.0,0.0,51,0.00,,---,0.00,VWS V14.01,2013-06-22 12:40:00,
2013-06-22 08:45:00,66.0,46.9,27.70,ENE,61,0.0,0.0,50,0.00,,---,0.00,VWS V14.01,2013-06-22 12:45:00,
2013-06-22 08:50:00,66.2,45.4,27.70,ENE,61,0.0,0.0,47,0.00,,---,0.00,VWS V14.01,2013-06-22 12:50:00,
2013-06-22 08:55:00,66.4,45.0,27.70,ENE,61,2.2,2.2,46,0.00,,---,0.00,VWS V14.01,2013-06-22 12:55:00,
2013-06-22 09:00:00,66.7,44.2,27.70,ENE,61,0.0,0.0,44,0.00,,---,0.00,VWS V14.01,2013-06-22 13:00:00,
2013-06-22 09:05:00,67.1,43.9,27.70,ENE,61,0.0,0.0,43,0.00,,---,0.00,VWS V14.01,2013-06-22 13:05:00,
2013-06-22 09:10:00,67.5,41.7,27.70,ENE,70,0.0,0.0,39,0.00,,---,0.00,VWS V14.01,2013-06-22 13:10:00,
2013-06-22 09:15:00,67.6,39.0,27.70,ENE,70,0.0,0.0,35,0.00,,---,0.00,VWS V14.01,2013-06-22 13:15:00,
2013-06-22 09:20:00,67.8,38.5,27.70,ENE,78,2.7,2.7,34,0.00,,---,0.00,VWS V14.01,2013-06-22 13:20:00,
2013-06-22 09:25:00,68.2,38.0,27.73,East,81,0.0,0.0,33,0.00,,---,0.00,VWS V14.01,2013-06-22 13:25:00,
2013-06-22 09:30:00,68.7,37.7,27.73,East,89,0.0,2.7,32,0.00,,---,0.00,VWS V14.01,2013-06-22 13:30:00,
2013-06-22 09:35:00,69.1,34.6,27.73,ENE,72,0.0,0.0,28,0.00,,---,0.00,VWS V14.01,2013-06-22 13:35:00,
2013-06-22 09:40:00,69.4,34.0,27.73,ENE,76,3.1,3.1,27,0.00,,---,0.00,VWS V14.01,2013-06-22 13:40:00,
2013-06-22 09:45:00,69.8,32.4,27.73,East,98,0.0,2.2,25,0.00,,---,0.00,VWS V14.01,2013-06-22 13:45:00,
2013-06-22 09:50:00,70.0,29.4,27.73,East,92,0.0,0.0,22,0.00,,---,0.00,VWS V14.01,2013-06-22 13:50:00,
2013-06-22 09:55:00,70.2,23.4,27.73,ESE,106,3.6,4.0,17,0.00,,---,0.00,VWS V14.01,2013-06-22 13:55:00,
2013-06-22 10:00:00,70.3,18.9,27.73,SSW,205,0.0,0.0,14,0.00,,---,0.00,VWS V14.01,2013-06-22 14:00:00,
2013-06-22 10:05:00,70.3,18.9,27.73,SSW,205,0.0,0.0,14,0.00,,---,0.00,VWS V14.01,2013-06-22 14:05:00,
2013-06-22 10:10:00,70.7,19.2,27.73,ESE,107,0.0,2.7,14,0.00,,---,0.00,VWS V14.01,2013-06-22 14:10:00,
2013-06-22 10:15:00,71.1,15.9,27.73,ESE,102,4.0,4.0,12,0.00,,---,0.00,VWS V14.01,2013-06-22 14:15:00,
2013-06-22 10:20:00,71.6,14.4,27.73,SE,128,3.1,3.1,11,0.00,,---,0.00,VWS V14.01,2013-06-22 14:20:00,
2013-06-22 10:25:00,71.8,10.0,27.73,ESE,105,2.7,2.7,9,0.00,,---,0.00,VWS V14.01,2013-06-22 14:25:00,
2013-06-22 10:30:00,72.0,10.1,27.73,ESE,112,3.6,4.0,9,0.00,,---,0.00,VWS V14.01,2013-06-22 14:30:00,
2013-06-22 10:35:00,72.3,10.4,27.73,East,100,0.0,0.0,9,0.00,,---,0.00,VWS V14.01,2013-06-22 14:35:00,
2013-06-22 10:40:00,72.7,1.8,27.73,SSW,202,0.0,0.0,6,0.00,,---,0.00,VWS V14.01,2013-06-22 14:40:00,
2013-06-22 10:45:00,72.9,1.9,27.73,ESE,105,0.0,3.1,6,0.00,,---,0.00,VWS V14.01,2013-06-22 14:45:00,
2013-06-22 10:50:00,73.2,2.1,27.73,SSE,147,0.0,0.0,6,0.00,,---,0.00,VWS V14.01,2013-06-22 14:50:00,
2013-06-22 10:55:00,73.2,2.1,27.73,SW,232,2.7,2.7,6,0.00,,---,0.00,VWS V14.01,2013-06-22 14:55:00,
2013-06-22 11:00:00,73.2,2.1,27.73,SE,134,2.2,2.2,6,0.00,,---,0.00,VWS V14.01,2013-06-22 15:00:00,
2013-06-22 11:05:00,73.4,-12.1,27.73,NE,42,0.0,0.0,3,0.00,,---,0.00,VWS V14.01,2013-06-22 15:05:00,
2013-06-22 11:10:00,73.6,-12.0,27.70,ENE,76,4.0,4.0,3,0.00,,---,0.00,VWS V14.01,2013-06-22 15:10:00,
2013-06-22 11:15:00,73.8,-11.9,27.70,ESE,108,3.1,3.1,3,0.00,,---,0.00,VWS V14.01,2013-06-22 15:15:00,
2013-06-22 11:20:00,74.1,-11.6,27.70,East,101,2.7,2.7,3,0.00,,---,0.00,VWS V14.01,2013-06-22 15:20:00,
2013-06-22 11:25:00,74.7,-11.2,27.70,ESE,108,2.2,2.7,3,0.00,,---,0.00,VWS V14.01,2013-06-22 15:25:00,
2013-06-22 11:30:00,75.2,-10.9,27.70,SE,132,2.7,3.1,3,0.00,,---,0.00,VWS V14.01,2013-06-22 15:30:00,
2013-06-22 11:35:00,75.7,-10.5,27.70,SE,134,2.2,3.1,3,0.00,,---,0.00,VWS V14.01,2013-06-22 15:35:00,
2013-06-22 11:40:00,76.3,-10.2,27.70,East,100,2.7,3.6,3,0.00,,---,0.00,VWS V14.01,2013-06-22 15:40:00,
2013-06-22 11:45:00,76.6,-9.9,27.70,South,176,2.7,2.7,3,0.00,,---,0.00,VWS V14.01,2013-06-22 15:45:00,
2013-06-22 11:50:00,77.0,-9.7,27.70,ESE,104,3.1,3.1,3,0.00,,---,0.00,VWS V14.01,2013-06-22 15:50:00,
2013-06-22 11:55:00,77.4,-9.4,27.70,ESE,120,3.1,3.6,3,0.00,,---,0.00,VWS V14.01,2013-06-22 15:55:00,
2013-06-22 12:00:00,77.9,-9.1,27.70,ESE,108,3.1,4.0,3,0.00,,---,0.00,VWS V14.01,2013-06-22 16:00:00,
2013-06-22 12:05:00,78.1,-9.0,27.70,East,88,2.7,2.7,3,0.00,,---,0.00,VWS V14.01,2013-06-22 16:05:00,
2013-06-22 12:10:00,78.4,-8.7,27.70,SE,130,3.1,3.1,3,0.00,,---,0.00,VWS V14.01,2013-06-22 16:10:00,
2013-06-22 12:15:00,78.4,-8.7,27.70,ESE,121,2.7,2.7,3,0.00,,---,0.00,VWS V14.01,2013-06-22 16:15:00,
2013-06-22 12:20:00,78.4,-8.7,27.70,ESE,114,3.1,3.1,3,0.00,,---,0.00,VWS V14.01,2013-06-22 16:20:00,
2013-06-22 12:25:00,78.6,-8.6,27.70,SE,129,3.1,3.1,3,0.00,,---,0.00,VWS V14.01,2013-06-22 16:25:00,
2013-06-22 12:30:00,79.3,-16.2,27.70,SSE,165,2.2,2.2,2,0.00,,---,0.00,VWS V14.01,2013-06-22 16:30:00,
2013-06-22 12:35:00,80.6,-15.4,27.70,ESE,111,2.7,3.1,2,0.00,,---,0.00,VWS V14.01,2013-06-22 16:35:00,
2013-06-22 12:40:00,81.5,-14.8,27.70,ESE,119,2.7,3.6,2,0.00,,---,0.00,VWS V14.01,2013-06-22 16:40:00,
2013-06-22 12:45:00,81.5,-14.8,27.70,SW,215,3.6,4.0,2,0.00,,---,0.00,VWS V14.01,2013-06-22 16:45:00,
2013-06-22 12:50:00,82.0,-14.5,27.70,SSE,156,2.7,2.7,2,0.00,,---,0.00,VWS V14.01,2013-06-22 16:50:00,
2013-06-22 12:55:00,82.9,-13.9,27.70,East,92,2.7,2.7,2,0.00,,---,0.00,VWS V14.01,2013-06-22 16:55:00,
2013-06-22 13:00:00,83.1,-13.8,27.70,SE,133,2.2,4.0,2,0.00,,---,0.00,VWS V14.01,2013-06-22 17:00:00,
2013-06-22 13:05:00,83.8,-13.3,27.70,ESE,117,3.1,3.1,2,0.00,,---,0.00,VWS V14.01,2013-06-22 17:05:00,
2013-06-22 13:10:00,84.4,-13.0,27.70,SE,135,2.7,2.7,2,0.00,,---,0.00,VWS V14.01,2013-06-22 17:10:00,
2013-06-22 13:15:00,85.3,-12.4,27.70,SE,129,2.7,2.7,2,0.00,,---,0.00,VWS V14.01,2013-06-22 17:15:00,
2013-06-22 13:20:00,86.0,-11.9,27.70,SSE,160,2.7,2.7,2,0.00,,---,0.00,VWS V14.01,2013-06-22 17:20:00,
2013-06-22 13:25:00,86.0,-11.9,27.70,West,267,2.7,3.1,2,0.00,,---,0.00,VWS V14.01,2013-06-22 17:25:00,
2013-06-22 13:30:00,86.7,-11.5,27.70,ESE,120,3.1,3.1,2,0.00,,---,0.00,VWS V14.01,2013-06-22 17:30:00,
2013-06-22 13:35:00,87.4,-11.0,27.70,South,186,0.0,0.0,2,0.00,,---,0.00,VWS V14.01,2013-06-22 17:35:00,
2013-06-22 13:40:00,88.0,-10.7,27.70,SSE,165,3.1,4.9,2,0.00,,---,0.00,VWS V14.01,2013-06-22 17:40:00,
2013-06-22 13:45:00,88.2,-10.6,27.70,ESE,111,3.1,3.1,2,0.00,,---,0.00,VWS V14.01,2013-06-22 17:45:00,
2013-06-22 13:50:00,88.9,-10.1,27.70,ESE,110,3.1,3.1,2,0.00,,---,0.00,VWS V14.01,2013-06-22 17:50:00,
2013-06-22 13:55:00,89.8,-9.5,27.70,SE,137,3.1,3.1,2,0.00,,---,0.00,VWS V14.01,2013-06-22 17:55:00,
2013-06-22 14:00:00,90.3,-9.2,27.70,West,270,3.1,3.1,2,0.00,,---,0.00,VWS V14.01,2013-06-22 18:00:00,
2013-06-22 14:05:00,89.6,-9.6,27.70,SE,134,2.2,3.1,2,0.00,,---,0.00,VWS V14.01,2013-06-22 18:05:00,
2013-06-22 14:10:00,90.0,-9.4,27.70,WSW,249,0.0,2.2,2,0.00,,---,0.00,VWS V14.01,2013-06-22 18:10:00,
2013-06-22 14:15:00,90.0,-9.4,27.70,East,94,2.2,3.1,2,0.00,,---,0.00,VWS V14.01,2013-06-22 18:15:00,
2013-06-22 14:20:00,89.6,-9.6,27.70,South,179,2.2,2.2,2,0.00,,---,0.00,VWS V14.01,2013-06-22 18:20:00,
2013-06-22 14:25:00,89.4,-9.8,27.67,East,85,2.2,2.2,2,0.00,,---,0.00,VWS V14.01,2013-06-22 18:25:00,
2013-06-22 14:30:00,90.0,-9.4,27.67,East,101,2.7,3.1,2,0.00,,---,0.00,VWS V14.01,2013-06-22 18:30:00,
2013-06-22 14:35:00,90.1,-9.3,27.67,ESE,118,2.7,3.1,2,0.00,,---,0.00,VWS V14.01,2013-06-22 18:35:00,
2013-06-22 14:40:00,90.7,-9.0,27.67,SE,138,0.0,0.0,2,0.00,,---,0.00,VWS V14.01,2013-06-22 18:40:00,
2013-06-22 14:45:00,91.0,-8.7,27.67,East,100,3.1,6.7,2,0.00,,---,0.00,VWS V14.01,2013-06-22 18:45:00,
2013-06-22 14:50:00,91.0,-8.7,27.67,WSW,251,2.2,2.2,2,0.00,,---,0.00,VWS V14.01,2013-06-22 18:50:00,
2013-06-22 14:55:00,90.9,-8.9,27.67,East,100,3.6,3.6,2,0.00,,---,0.00,VWS V14.01,2013-06-22 18:55:00,
2013-06-22 15:00:00,90.7,-9.0,27.67,WSW,247,2.2,2.7,2,0.00,,---,0.00,VWS V14.01,2013-06-22 19:00:00,
2013-06-22 15:05:00,90.0,-9.4,27.67,SE,146,0.0,0.0,2,0.00,,---,0.00,VWS V14.01,2013-06-22 19:05:00,
2013-06-22 15:10:00,89.4,-9.8,27.67,ENE,58,2.7,2.7,2,0.00,,---,0.00,VWS V14.01,2013-06-22 19:10:00,
2013-06-22 15:15:00,88.5,-10.3,27.67,SW,230,0.0,0.0,2,0.00,,---,0.00,VWS V14.01,2013-06-22 19:15:00,
2013-06-22 15:20:00,87.3,-11.1,27.67,WSW,252,4.0,4.0,2,0.00,,---,0.00,VWS V14.01,2013-06-22 19:20:00,
2013-06-22 15:25:00,86.2,-11.8,27.67,SE,144,2.2,3.1,2,0.00,,---,0.00,VWS V14.01,2013-06-22 19:25:00,
2013-06-22 15:30:00,85.5,-12.3,27.67,SE,135,2.2,2.7,2,0.00,,---,0.00,VWS V14.01,2013-06-22 19:30:00,
2013-06-22 15:35:00,84.7,-12.8,27.67,SE,138,3.6,4.0,2,0.00,,---,0.00,VWS V14.01,2013-06-22 19:35:00,
2013-06-22 15:40:00,84.2,-13.1,27.64,SE,124,2.7,2.7,2,0.00,,---,0.00,VWS V14.01,2013-06-22 19:40:00,
2013-06-22 15:45:00,83.7,-13.4,27.64,ESE,113,0.0,0.0,2,0.00,,---,0.00,VWS V14.01,2013-06-22 19:45:00,
2013-06-22 15:50:00,83.3,-13.7,27.64,East,81,2.7,3.1,2,0.00,,---,0.00,VWS V14.01,2013-06-22 19:50:00,
2013-06-22 15:55:00,82.8,-14.0,27.64,SW,227,2.7,2.7,2,0.00,,---,0.00,VWS V14.01,2013-06-22 19:55:00,
2013-06-22 16:00:00,82.4,-14.2,27.64,NE,43,2.7,2.7,2,0.00,,---,0.00,VWS V14.01,2013-06-22 20:00:00,
2013-06-22 16:05:00,81.7,-14.7,27.64,ESE,103,3.1,3.6,2,0.00,,---,0.00,VWS V14.01,2013-06-22 20:05:00,
2013-06-22 16:10:00,81.1,-15.1,27.64,SE,146,2.2,2.2,2,0.00,,---,0.00,VWS V14.01,2013-06-22 20:10:00,
2013-06-22 16:15:00,80.8,-15.3,27.64,South,186,0.0,0.0,2,0.00,,---,0.00,VWS V14.01,2013-06-22 20:15:00,
2013-06-22 16:20:00,81.0,-15.2,27.64,SSW,208,0.0,2.2,2,0.00,,---,0.00,VWS V14.01,2013-06-22 20:20:00,
2013-06-22 16:25:00,81.1,-15.1,27.64,ESE,110,3.1,3.1,2,0.00,,---,0.00,VWS V14.01,2013-06-22 20:25:00,
2013-06-22 16:30:00,81.1,-15.1,27.64,ESE,119,2.7,2.7,2,0.00,,---,0.00,VWS V14.01,2013-06-22 20:30:00,
2013-06-22 16:35:00,81.3,-14.9,27.64,SE,129,2.2,4.0,2,0.00,,---,0.00,VWS V14.01,2013-06-22 20:35:00,
2013-06-22 16:40:00,81.3,-14.9,27.64,ESE,117,2.2,2.2,2,0.00,,---,0.00,VWS V14.01,2013-06-22 20:40:00,
2013-06-22 16:45:00,81.3,-14.9,27.64,SSE,155,2.2,2.2,2,0.00,,---,0.00,VWS V14.01,2013-06-22 20:45:00,
2013-06-22 16:50:00,81.3,-14.9,27.64,SE,133,2.2,2.2,2,0.00,,---,0.00,VWS V14.01,2013-06-22 20:50:00,
2013-06-22 16:55:00,81.1,-15.1,27.64,ESE,106,2.7,2.7,2,0.00,,---,0.00,VWS V14.01,2013-06-22 20:55:00,
2013-06-22 17:00:00,81.0,-15.2,27.64,ESE,122,0.0,2.2,2,0.00,,---,0.00,VWS V14.01,2013-06-22 21:00:00,
2013-06-22 17:05:00,80.6,-15.4,27.64,ESE,106,0.0,2.2,2,0.00,,---,0.00,VWS V14.01,2013-06-22 21:05:00,
2013-06-22 17:10:00,80.4,-15.5,27.61,ESE,116,2.7,2.7,2,0.00,,---,0.00,VWS V14.01,2013-06-22 21:10:00,
2013-06-22 17:15:00,80.1,-15.8,27.61,SSW,211,0.0,0.0,2,0.00,,---,0.00,VWS V14.01,2013-06-22 21:15:00,
2013-06-22 17:20:00,79.7,-16.0,27.61,South,179,0.0,0.0,2,0.00,,---,0.00,VWS V14.01,2013-06-22 21:20:00,
2013-06-22 17:25:00,79.5,-16.1,27.61,SW,214,0.0,0.0,2,0.00,,---,0.00,VWS V14.01,2013-06-22 21:25:00,
2013-06-22 17:30:00,79.5,-16.1,27.61,ESE,116,2.7,2.7,2,0.00,,---,0.00,VWS V14.01,2013-06-22 21:30:00,
2013-06-22 17:35:00,79.5,-16.1,27.61,ESE,114,0.0,0.0,2,0.00,,---,0.00,VWS V14.01,2013-06-22 21:35:00,
2013-06-22 17:40:00,79.3,-16.2,27.61,ESE,114,0.0,0.0,2,0.00,,---,0.00,VWS V14.01,2013-06-22 21:40:00,
2013-06-22 17:45:00,79.0,-16.5,27.61,ESE,111,0.0,0.0,2,0.00,,---,0.00,VWS V14.01,2013-06-22 21:45:00,
2013-06-22 17:50:00,78.6,-8.6,27.61,ESE,112,0.0,0.0,3,0.00,,---,0.00,VWS V14.01,2013-06-22 21:50:00,
2013-06-22 17:55:00,78.3,-8.8,27.61,WSW,239,0.0,0.0,3,0.00,,---,0.00,VWS V14.01,2013-06-22 21:55:00,
2013-06-22 18:00:00,78.1,-9.0,27.61,WSW,239,0.0,0.0,3,0.00,,---,0.00,VWS V14.01,2013-06-22 22:00:00,
2013-06-22 18:05:00,77.9,-9.1,27.61,South,184,0.0,0.0,3,0.00,,---,0.00,VWS V14.01,2013-06-22 22:05:00,
2013-06-22 18:10:00,77.7,-9.2,27.61,WSW,247,3.1,3.1,3,0.00,,---,0.00,VWS V14.01,2013-06-22 22:10:00,
2013-06-22 18:15:00,77.5,-9.3,27.61,East,97,0.0,0.0,3,0.00,,---,0.00,VWS V14.01,2013-06-22 22:15:00,
2013-06-22 18:20:00,77.5,-9.3,27.61,SSE,164,0.0,0.0,3,0.00,,---,0.00,VWS V14.01,2013-06-22 22:20:00,
2013-06-22 18:25:00,77.5,-9.3,27.61,SSE,164,0.0,0.0,3,0.00,,---,0.00,VWS V14.01,2013-06-22 22:25:00,
2013-06-22 18:30:00,77.5,-9.3,27.61,SSE,164,0.0,0.0,3,0.00,,---,0.00,VWS V14.01,2013-06-22 22:30:00,
2013-06-22 18:35:00,77.5,-9.3,27.61,SSE,164,0.0,0.0,3,0.00,,---,0.00,VWS V14.01,2013-06-22 22:35:00,
2013-06-22 18:40:00,77.2,-9.6,27.61,SSE,164,0.0,0.0,3,0.00,,---,0.00,VWS V14.01,2013-06-22 22:40:00,
2013-06-22 18:45:00,76.8,-9.8,27.61,SSE,164,2.2,2.2,3,0.00,,---,0.00,VWS V14.01,2013-06-22 22:45:00,
2013-06-22 18:50:00,76.6,-9.9,27.61,SSE,164,0.0,0.0,3,0.00,,---,0.00,VWS V14.01,2013-06-22 22:50:00,
2013-06-22 18:55:00,76.5,-10.0,27.61,WSW,253,0.0,2.2,3,0.00,,---,0.00,VWS V14.01,2013-06-22 22:55:00,
2013-06-22 19:00:00,76.3,-10.2,27.61,West,272,0.0,0.0,3,0.00,,---,0.00,VWS V14.01,2013-06-22 23:00:00,
2013-06-22 19:05:00,76.1,-10.3,27.61,WNW,290,0.0,0.0,3,0.00,,---,0.00,VWS V14.01,2013-06-22 23:05:00,
2013-06-22 19:10:00,76.1,-10.3,27.61,SSE,148,0.0,0.0,3,0.00,,---,0.00,VWS V14.01,2013-06-22 23:10:00,
2013-06-22 19:15:00,75.9,-10.4,27.61,SSE,148,0.0,0.0,3,0.00,,---,0.00,VWS V14.01,2013-06-22 23:15:00,
2013-06-22 19:20:00,75.7,-10.5,27.61,SW,214,2.7,2.7,3,0.00,,---,0.00,VWS V14.01,2013-06-22 23:20:00,
2013-06-22 19:25:00,75.6,-10.6,27.61,East,92,0.0,0.0,3,0.00,,---,0.00,VWS V14.01,2013-06-22 23:25:00,
2013-06-22 19:30:00,75.4,-10.8,27.61,NNW,348,0.0,0.0,3,0.00,,---,0.00,VWS V14.01,2013-06-22 23:30:00,
2013-06-22 19:35:00,75.4,-10.8,27.61,NNW,348,0.0,0.0,3,0.00,,---,0.00,VWS V14.01,2013-06-22 23:35:00,
2013-06-22 19:40:00,75.2,-10.9,27.61,NE,44,0.0,0.0,3,0.00,,---,0.00,VWS V14.01,2013-06-22 23:40:00,
2013-06-22 19:45:00,75.0,-11.0,27.61,SW,235,0.0,0.0,3,0.00,,---,0.00,VWS V14.01,2013-06-22 23:45:00,
2013-06-22 19:50:00,74.8,-11.1,27.61,East,94,2.2,2.2,3,0.00,,---,0.00,VWS V14.01,2013-06-22 23:50:00,
2013-06-22 19:55:00,74.7,-11.2,27.61,East,94,0.0,0.0,3,0.00,,---,0.00,VWS V14.01,2013-06-22 23:55:00,
2013-06-22 20:00:00,74.3,-11.5,27.61,East,79,2.7,2.7,3,0.00,,---,0.00,VWS V14.01,2013-06-23 00:00:00,
2013-06-22 20:05:00,74.3,-11.5,27.61,ENE,68,0.0,0.0,3,0.00,,---,0.00,VWS V14.01,2013-06-23 00:05:00,
2013-06-22 20:10:00,73.9,-11.7,27.61,ENE,68,0.0,0.0,3,0.00,,---,0.00,VWS V14.01,2013-06-23 00:10:00,
2013-06-22 20:15:00,73.8,-11.9,27.61,SW,218,2.2,2.2,3,0.00,,---,0.00,VWS V14.01,2013-06-23 00:15:00,
2013-06-22 20:20:00,73.6,-12.0,27.61,ENE,69,3.1,3.1,3,0.00,,---,0.00,VWS V14.01,2013-06-23 00:20:00,
2013-06-22 20:25:00,73.4,-12.1,27.61,SE,125,0.0,0.0,3,0.00,,---,0.00,VWS V14.01,2013-06-23 00:25:00,
2013-06-22 20:30:00,73.2,-6.4,27.61,ESE,113,0.0,0.0,4,0.00,,---,0.00,VWS V14.01,2013-06-23 00:30:00,
2013-06-22 20:35:00,73.0,-6.5,27.61,North,2,0.0,0.0,4,0.00,,---,0.00,VWS V14.01,2013-06-23 00:35:00,
2013-06-22 20:40:00,72.7,-6.8,27.61,North,0,0.0,0.0,4,0.00,,---,0.00,VWS V14.01,2013-06-23 00:40:00,
2013-06-22 20:45:00,72.5,-6.9,27.61,North,0,0.0,0.0,4,0.00,,---,0.00,VWS V14.01,2013-06-23 00:45:00,
2013-06-22 20:50:00,72.1,-7.1,27.61,SSW,211,0.0,0.0,4,0.00,,---,0.00,VWS V14.01,2013-06-23 00:50:00,
2013-06-22 20:55:00,72.0,-7.3,27.64,SSW,211,0.0,0.0,4,0.00,,---,0.00,VWS V14.01,2013-06-23 00:55:00,
2013-06-22 21:00:00,71.8,1.1,27.64,SSW,211,0.0,0.0,6,0.00,,---,0.00,VWS V14.01,2013-06-23 01:00:00,
2013-06-22 21:05:00,71.4,4.2,27.64,SSW,211,0.0,0.0,7,0.00,,---,0.00,VWS V14.01,2013-06-23 01:05:00,
2013-06-22 21:10:00,71.2,4.0,27.64,SSW,211,0.0,0.0,7,0.00,,---,0.00,VWS V14.01,2013-06-23 01:10:00,
2013-06-22 21:15:00,71.1,3.9,27.64,SSW,211,0.0,0.0,7,0.00,,---,0.00,VWS V14.01,2013-06-23 01:15:00,
2013-06-22 21:20:00,70.9,3.8,27.64,SSW,211,0.0,0.0,7,0.00,,---,0.00,VWS V14.01,2013-06-23 01:20:00,
2013-06-22 21:25:00,70.5,3.5,27.64,SSW,211,0.0,0.0,7,0.00,,---,0.00,VWS V14.01,2013-06-23 01:25:00,
2013-06-22 21:30:00,70.3,3.4,27.64,SSW,211,0.0,0.0,7,0.00,,---,0.00,VWS V14.01,2013-06-23 01:30:00,
2013-06-22 21:35:00,70.2,8.7,27.64,SSW,211,0.0,0.0,9,0.00,,---,0.00,VWS V14.01,2013-06-23 01:35:00,
2013-06-22 21:40:00,70.0,8.6,27.64,SSW,211,0.0,0.0,9,0.00,,---,0.00,VWS V14.01,2013-06-23 01:40:00,
2013-06-22 21:45:00,69.8,8.5,27.64,SSW,211,0.0,0.0,9,0.00,,---,0.00,VWS V14.01,2013-06-23 01:45:00,
2013-06-22 21:50:00,69.6,14.8,27.64,SSW,211,0.0,0.0,12,0.00,,---,0.00,VWS V14.01,2013-06-23 01:50:00,
2013-06-22 21:55:00,69.4,10.5,27.64,SSW,211,0.0,0.0,10,0.00,,---,0.00,VWS V14.01,2013-06-23 01:55:00,
2013-06-22 22:00:00,69.3,14.5,27.64,SSW,211,0.0,0.0,12,0.00,,---,0.00,VWS V14.01,2013-06-23 02:00:00,
2013-06-22 22:05:00,69.1,14.4,27.64,SSW,211,0.0,0.0,12,0.00,,---,0.00,VWS V14.01,2013-06-23 02:05:00,
2013-06-22 22:10:00,68.9,14.2,27.64,SSW,211,0.0,0.0,12,0.00,,---,0.00,VWS V14.01,2013-06-23 02:10:00,
2013-06-22 22:15:00,68.7,19.2,27.64,SSW,211,0.0,0.0,15,0.00,,---,0.00,VWS V14.01,2013-06-23 02:15:00,
2013-06-22 22:20:00,68.5,19.1,27.64,SSW,211,0.0,0.0,15,0.00,,---,0.00,VWS V14.01,2013-06-23 02:20:00,
2013-06-22 22:25:00,68.2,18.8,27.67,SSW,211,0.0,0.0,15,0.00,,---,0.00,VWS V14.01,2013-06-23 02:25:00,
2013-06-22 22:30:00,68.2,21.7,27.67,SSW,211,0.0,0.0,17,0.00,,---,0.00,VWS V14.01,2013-06-23 02:30:00,
2013-06-22 22:35:00,68.0,21.6,27.67,SSW,211,0.0,0.0,17,0.00,,---,0.00,VWS V14.01,2013-06-23 02:35:00,
2013-06-22 22:40:00,68.0,25.5,27.67,SSW,211,0.0,0.0,20,0.00,,---,0.00,VWS V14.01,2013-06-23 02:40:00,
2013-06-22 22:45:00,68.0,27.8,27.67,SSW,211,0.0,0.0,22,0.00,,---,0.00,VWS V14.01,2013-06-23 02:45:00,
2013-06-22 22:50:00,67.6,27.5,27.67,SSW,211,0.0,0.0,22,0.00,,---,0.00,VWS V14.01,2013-06-23 02:50:00,
2013-06-22 22:55:00,67.3,28.2,27.67,SSW,211,0.0,0.0,23,0.00,,---,0.00,VWS V14.01,2013-06-23 02:55:00,
2013-06-22 23:00:00,67.1,28.1,27.67,SSW,211,0.0,0.0,23,0.00,,---,0.00,VWS V14.01,2013-06-23 03:00:00,
2013-06-22 23:05:00,67.1,28.1,27.67,SSW,211,0.0,0.0,23,0.00,,---,0.00,VWS V14.01,2013-06-23 03:05:00,
2013-06-22 23:10:00,66.9,29.0,27.67,SSW,211,0.0,0.0,24,0.00,,---,0.00,VWS V14.01,2013-06-23 03:10:00,
2013-06-22 23:15:00,66.9,29.0,27.67,SSW,211,0.0,0.0,24,0.00,,---,0.00,VWS V14.01,2013-06-23 03:15:00,
2013-06-22 23:20:00,66.7,28.8,27.67,SSW,211,0.0,0.0,24,0.00,,---,0.00,VWS V14.01,2013-06-23 03:20:00,
2013-06-22 23:25:00,66.7,28.8,27.67,SSW,211,0.0,0.0,24,0.00,,---,0.00,VWS V14.01,2013-06-23 03:25:00,
2013-06-22 23:30:00,66.6,28.7,27.67,SSW,211,0.0,0.0,24,0.00,,---,0.00,VWS V14.01,2013-06-23 03:30:00,
2013-06-22 23:35:00,66.6,28.7,27.67,SSW,211,0.0,0.0,24,0.00,,---,0.00,VWS V14.01,2013-06-23 03:35:00,
2013-06-22 23:40:00,66.6,29.7,27.67,SSW,211,0.0,0.0,25,0.00,,---,0.00,VWS V14.01,2013-06-23 03:40:00,
2013-06-22 23:45:00,66.6,29.7,27.67,SSW,211,0.0,0.0,25,0.00,,---,0.00,VWS V14.01,2013-06-23 03:45:00,
2013-06-22 23:50:00,66.4,30.5,27.67,SSW,211,0.0,0.0,26,0.00,,---,0.00,VWS V14.01,2013-06-23 03:50:00,
2013-06-22 23:55:00,66.4,30.5,27.67,SSW,211,0.0,0.0,26,0.00,,---,0.00,VWS V14.01,2013-06-23 03:55:00,